Location: Arrodets-la-Barthe
(43.0306°N, 0.2829°E)
Time: 00:02:50
(UTC+00:00)

Iridium 4 Rocket - Pass Details

Date: 04 June 2022
Orbit: 585 x 902 km, 86.9° (Epoch: 03 July)

Event Time Altitude Azimuth Distance (km) Brightness Sun altitude
Rises 20:35:16 0° 17° (NNE) 3,148 7.1 -9.7°
Reaches altitude 10° 20:38:36 10° 41° (NE) 2,291 6.0 -10.1°
Maximum altitude 20:41:25 15° 75° (ENE) 2,034 5.4 -10.5°
Enters shadow 20:44:13 10° 107° (ESE) 2,370 5.5 -10.9°
